Малый Атлым

Россия / Ханты-Мансийский автономный округ - Югра     62°25′10″N   67°07′40″E
темп.,
°C
ветер,
м/с
пор.,
м/с
влажн.,
%
обл.,
%
осадки,
мм/ч
давл.,
гПа
погр.,
м
17 октября, вс
вс1723:00+3ююз41187100 0.0 1012349
02:00+5юз41085100 0.0 1012554
05:00+3юз3795100 0.0 1013227
08:00+4ю3992100 0.0 1012345
11:00+5ююз41085100 0.0 1011717
14:00+6ююз41075100 0.0 1010744
17:00+5ююз51178100 0.0 1009716
20:00+5ююз41184100 0.1 1009893
18 октября, пн
пн1823:00+6юз51182100 0.1 1008859
02:00+5юз41080100 0.0 1008747
05:00+3юз399065 0.1 1009323
08:00+3ююз31090100 0.0 1008433
11:00+4ююз41183100 0.0 1008628
14:00+6ююз497558 0.0 1007879
17:00+6юз41077100 0.0 1007868
20:00+5юз398470 0.1 1007502
19 октября, вт
вт1923:00+5юз31087100 0.3 1008538
02:00+4ююз388794 0.1 1008271
05:00+4ююз2693100 0.1 1008190
08:00+3ю2597100 0.0 1007133
11:00+5ю3694100 0.0 1006344
14:00+5ююв3794100 0.4 1005574
17:00+6ююз3996100 2.0 10031022
20:00+5зюз2896100 2.8 1003616
20 октября, ср
ср2023:00+5юз41091100 3.0 1002576
02:00+3зюз5108059 0.1 1003704
05:00+2зюз41078100 0.0 1005717
08:00+2юз3881100 0.0 1006532
11:00+2зюз3682100 0.0 1007578
14:00+2зюз3584100 0.0 1008761
17:00+2зюз1387100 0.1 1009186
20:000зюз2292100 0.0 101037
21 октября, чт
чт2123:000зюз1190100 0.0 101030
02:000з1389100 0.0 101094
05:00−2з229055 0.0 101053
08:00−2зюз25895 0.0 1010155
11:000з36655 0.0 1010647
14:00+1з46595 0.0 1010923
17:00−1зюз257613 0.0 1011108
20:00−2юз2880100 0.0 1010238